Time,TemperatureF,DewpointF,PressureIn,WindDirection,WindDirectionDegrees,WindSpeedMPH,WindSpeedGustMPH,Humidity,HourlyPrecipIn,Conditions,Clouds,dailyrainin,SoftwareType,DateUTC
2013-08-30 00:03:00,63.1,48.6,29.88,East,83,0.0,0.0,59,0.00,,CLR,0.00,VWS V14.01,2013-08-30 06:03:00,
2013-08-30 00:08:00,62.9,48.8,29.88,East,83,0.0,0.0,60,0.00,,CLR,0.00,VWS V14.01,2013-08-30 06:08:00,
2013-08-30 00:13:00,62.6,49.0,29.88,East,83,0.0,0.0,61,0.00,,CLR,0.00,VWS V14.01,2013-08-30 06:13:00,
2013-08-30 00:18:00,62.4,48.3,29.86,East,83,0.0,0.0,60,0.00,,CLR,0.00,VWS V14.01,2013-08-30 06:18:00,
2013-08-30 00:23:00,62.4,49.2,29.86,East,83,0.0,0.0,62,0.00,,CLR,0.00,VWS V14.01,2013-08-30 06:23:00,
2013-08-30 00:28:00,62.1,48.5,29.86,East,83,0.0,0.0,61,0.00,,CLR,0.00,VWS V14.01,2013-08-30 06:28:00,
2013-08-30 00:33:00,61.8,48.7,29.86,East,83,0.0,0.0,62,0.00,,CLR,0.00,VWS V14.01,2013-08-30 06:33:00,
2013-08-30 00:38:00,61.5,49.2,29.86,East,83,0.0,0.0,64,0.00,,CLR,0.00,VWS V14.01,2013-08-30 06:38:00,
2013-08-30 00:44:00,61.5,49.6,29.86,East,83,0.0,0.0,65,0.00,,CLR,0.00,VWS V14.01,2013-08-30 06:44:00,
2013-08-30 00:49:00,61.5,50.0,29.86,East,83,0.0,0.0,66,0.00,,CLR,0.00,VWS V14.01,2013-08-30 06:49:00,
2013-08-30 00:54:00,61.5,50.0,29.86,East,83,0.0,1.0,66,0.00,,CLR,0.00,VWS V14.01,2013-08-30 06:54:00,
2013-08-30 00:59:00,61.5,50.5,29.86,East,83,0.0,1.0,67,0.00,,CLR,0.00,VWS V14.01,2013-08-30 06:59:00,
2013-08-30 01:04:00,61.8,50.3,29.86,East,83,0.0,0.0,66,0.00,,CLR,0.00,VWS V14.01,2013-08-30 07:04:00,
2013-08-30 01:09:00,62.0,50.1,29.86,East,83,0.0,0.0,65,0.00,,CLR,0.00,VWS V14.01,2013-08-30 07:09:00,
2013-08-30 01:14:00,62.0,50.5,29.86,East,83,0.0,1.0,66,0.00,,CLR,0.00,VWS V14.01,2013-08-30 07:14:00,
2013-08-30 01:19:00,62.0,50.1,29.83,East,83,0.0,1.0,65,0.00,,CLR,0.00,VWS V14.01,2013-08-30 07:19:00,
2013-08-30 01:24:00,62.1,49.8,29.83,East,98,0.0,4.0,64,0.00,,CLR,0.00,VWS V14.01,2013-08-30 07:24:00,
2013-08-30 01:29:00,62.3,49.6,29.83,ENE,65,1.0,3.0,63,0.00,,CLR,0.00,VWS V14.01,2013-08-30 07:29:00,
2013-08-30 01:34:00,62.3,48.7,29.83,NE,46,0.0,1.0,61,0.00,,CLR,0.00,VWS V14.01,2013-08-30 07:34:00,
2013-08-30 01:39:00,62.4,49.2,29.83,East,81,0.0,5.0,62,0.00,,CLR,0.00,VWS V14.01,2013-08-30 07:39:00,
2013-08-30 01:44:00,62.3,49.1,29.83,East,81,0.0,1.0,62,0.00,,CLR,0.00,VWS V14.01,2013-08-30 07:44:00,
2013-08-30 01:49:00,62.1,48.9,29.83,East,81,0.0,0.0,62,0.00,,CLR,0.00,VWS V14.01,2013-08-30 07:49:00,
2013-08-30 01:54:00,62.1,49.4,29.83,East,81,0.0,1.0,63,0.00,,CLR,0.00,VWS V14.01,2013-08-30 07:54:00,
2013-08-30 01:59:00,62.0,49.3,29.83,East,81,0.0,1.0,63,0.00,,CLR,0.00,VWS V14.01,2013-08-30 07:59:00,
2013-08-30 02:04:00,62.0,49.3,29.83,ENE,69,0.0,2.0,63,0.00,,CLR,0.00,VWS V14.01,2013-08-30 08:04:00,
2013-08-30 02:09:00,61.8,49.1,29.83,ENE,69,0.0,1.0,63,0.00,,CLR,0.00,VWS V14.01,2013-08-30 08:09:00,
2013-08-30 02:14:00,61.6,48.9,29.83,ENE,69,0.0,0.0,63,0.00,,CLR,0.00,VWS V14.01,2013-08-30 08:14:00,
2013-08-30 02:20:00,61.5,48.8,29.83,ENE,69,1.0,1.0,63,0.00,,CLR,0.00,VWS V14.01,2013-08-30 08:20:00,
2013-08-30 02:25:00,61.2,48.5,29.83,ENE,69,2.0,2.0,63,0.00,,CLR,0.00,VWS V14.01,2013-08-30 08:25:00,
2013-08-30 02:30:00,61.0,48.3,29.83,ENE,69,0.0,0.0,63,0.00,,CLR,0.00,VWS V14.01,2013-08-30 08:30:00,
2013-08-30 02:35:00,60.9,48.7,29.84,ENE,69,0.0,0.0,64,0.00,,CLR,0.00,VWS V14.01,2013-08-30 08:35:00,
2013-08-30 02:40:00,60.9,48.7,29.84,ENE,69,0.0,0.0,64,0.00,,CLR,0.00,VWS V14.01,2013-08-30 08:40:00,
2013-08-30 02:45:00,60.9,48.7,29.84,ENE,69,0.0,0.0,64,0.00,,CLR,0.00,VWS V14.01,2013-08-30 08:45:00,
2013-08-30 02:50:00,60.9,48.2,29.84,ENE,69,0.0,0.0,63,0.00,,CLR,0.00,VWS V14.01,2013-08-30 08:50:00,
2013-08-30 02:55:00,61.0,48.3,29.84,ENE,69,0.0,0.0,63,0.00,,CLR,0.00,VWS V14.01,2013-08-30 08:55:00,
2013-08-30 03:00:00,61.2,48.5,29.84,ENE,69,0.0,0.0,63,0.00,,CLR,0.00,VWS V14.01,2013-08-30 09:00:00,
2013-08-30 03:05:00,61.3,49.0,29.84,ENE,69,0.0,0.0,64,0.00,,CLR,0.00,VWS V14.01,2013-08-30 09:05:00,
2013-08-30 03:10:00,61.3,49.0,29.84,ENE,69,0.0,0.0,64,0.00,,CLR,0.00,VWS V14.01,2013-08-30 09:10:00,
2013-08-30 03:15:00,61.2,48.9,29.84,ENE,69,0.0,0.0,64,0.00,,CLR,0.00,VWS V14.01,2013-08-30 09:15:00,
2013-08-30 03:20:00,61.0,48.8,29.81,ENE,69,0.0,0.0,64,0.00,,CLR,0.00,VWS V14.01,2013-08-30 09:20:00,
2013-08-30 03:26:00,60.7,48.5,29.81,ENE,69,0.0,0.0,64,0.00,,CLR,0.00,VWS V14.01,2013-08-30 09:26:00,
2013-08-30 03:31:00,60.5,48.7,29.81,ENE,69,0.0,0.0,65,0.00,,CLR,0.00,VWS V14.01,2013-08-30 09:31:00,
2013-08-30 03:36:00,60.2,48.4,29.82,ENE,69,0.0,0.0,65,0.00,,CLR,0.00,VWS V14.01,2013-08-30 09:36:00,
2013-08-30 03:41:00,60.1,48.7,29.82,ENE,69,0.0,0.0,66,0.00,,CLR,0.00,VWS V14.01,2013-08-30 09:41:00,
2013-08-30 03:46:00,60.1,48.7,29.82,ENE,69,0.0,0.0,66,0.00,,CLR,0.00,VWS V14.01,2013-08-30 09:46:00,
2013-08-30 03:51:00,60.1,48.7,29.81,ENE,69,0.0,0.0,66,0.00,,CLR,0.00,VWS V14.01,2013-08-30 09:51:00,
2013-08-30 03:56:00,59.9,48.5,29.81,ENE,69,0.0,0.0,66,0.00,,CLR,0.00,VWS V14.01,2013-08-30 09:56:00,
2013-08-30 04:01:00,59.9,48.5,29.81,ENE,69,0.0,0.0,66,0.00,,CLR,0.00,VWS V14.01,2013-08-30 10:01:00,
2013-08-30 04:06:00,59.8,48.4,29.81,ENE,69,0.0,0.0,66,0.00,,CLR,0.00,VWS V14.01,2013-08-30 10:06:00,
2013-08-30 04:11:00,59.8,48.8,29.81,ENE,69,0.0,0.0,67,0.00,,CLR,0.00,VWS V14.01,2013-08-30 10:11:00,
2013-08-30 04:16:00,59.6,48.6,29.81,ENE,69,0.0,0.0,67,0.00,,CLR,0.00,VWS V14.01,2013-08-30 10:16:00,
2013-08-30 04:21:00,59.5,48.2,29.81,ENE,69,0.0,0.0,66,0.00,,CLR,0.00,VWS V14.01,2013-08-30 10:21:00,
2013-08-30 04:26:00,59.5,48.2,29.81,ENE,69,0.0,0.0,66,0.00,,CLR,0.00,VWS V14.01,2013-08-30 10:26:00,
2013-08-30 04:31:00,59.3,48.0,29.81,ENE,69,0.0,0.0,66,0.00,,CLR,0.00,VWS V14.01,2013-08-30 10:31:00,
2013-08-30 04:36:00,59.3,48.4,29.81,ENE,69,0.0,0.0,67,0.00,,CLR,0.00,VWS V14.01,2013-08-30 10:36:00,
2013-08-30 04:41:00,59.0,48.1,29.81,ENE,69,0.0,0.0,67,0.00,,CLR,0.00,VWS V14.01,2013-08-30 10:41:00,
2013-08-30 04:46:00,58.9,48.0,29.81,ENE,69,0.0,0.0,67,0.00,,CLR,0.00,VWS V14.01,2013-08-30 10:46:00,
2013-08-30 04:51:00,58.6,47.7,29.81,ENE,69,0.0,0.0,67,0.00,,CLR,0.00,VWS V14.01,2013-08-30 10:51:00,
2013-08-30 04:56:00,58.3,47.8,29.81,ENE,69,0.0,0.0,68,0.00,,CLR,0.00,VWS V14.01,2013-08-30 10:56:00,
2013-08-30 05:02:00,58.1,47.6,29.82,ENE,69,0.0,0.0,68,0.00,,CLR,0.00,VWS V14.01,2013-08-30 11:02:00,
2013-08-30 05:07:00,58.0,47.5,29.82,ENE,69,0.0,0.0,68,0.00,,CLR,0.00,VWS V14.01,2013-08-30 11:07:00,
2013-08-30 05:12:00,57.8,46.9,29.82,ENE,69,0.0,0.0,67,0.00,,CLR,0.00,VWS V14.01,2013-08-30 11:12:00,
2013-08-30 05:17:00,57.8,47.7,29.85,ENE,69,0.0,0.0,69,0.00,,CLR,0.00,VWS V14.01,2013-08-30 11:17:00,
2013-08-30 05:22:00,57.6,47.9,29.85,ENE,69,0.0,0.0,70,0.00,,CLR,0.00,VWS V14.01,2013-08-30 11:22:00,
2013-08-30 05:27:00,57.3,47.6,29.85,ENE,69,0.0,0.0,70,0.00,,CLR,0.00,VWS V14.01,2013-08-30 11:27:00,
2013-08-30 05:32:00,57.2,47.1,29.85,ENE,69,0.0,0.0,69,0.00,,CLR,0.00,VWS V14.01,2013-08-30 11:32:00,
2013-08-30 05:37:00,57.0,47.3,29.85,ENE,69,0.0,0.0,70,0.00,,CLR,0.00,VWS V14.01,2013-08-30 11:37:00,
2013-08-30 05:42:00,56.9,46.8,29.85,ENE,69,0.0,0.0,69,0.00,,CLR,0.00,VWS V14.01,2013-08-30 11:42:00,
2013-08-30 05:47:00,56.9,47.2,29.85,ENE,69,0.0,0.0,70,0.00,,CLR,0.00,VWS V14.01,2013-08-30 11:47:00,
2013-08-30 05:52:00,56.7,47.0,29.85,ENE,69,0.0,0.0,70,0.00,,CLR,0.00,VWS V14.01,2013-08-30 11:52:00,
2013-08-30 05:57:00,56.6,46.9,29.85,ENE,69,0.0,0.0,70,0.00,,CLR,0.00,VWS V14.01,2013-08-30 11:57:00,
2013-08-30 06:02:00,56.3,47.4,29.85,ENE,69,0.0,0.0,72,0.00,,CLR,0.00,VWS V14.01,2013-08-30 12:02:00,
2013-08-30 06:07:00,56.2,46.6,29.85,ENE,69,0.0,0.0,70,0.00,,CLR,0.00,VWS V14.01,2013-08-30 12:07:00,
2013-08-30 06:12:00,56.2,46.6,29.85,ENE,69,0.0,0.0,70,0.00,,CLR,0.00,VWS V14.01,2013-08-30 12:12:00,
2013-08-30 06:17:00,56.2,46.2,29.89,ENE,69,0.0,0.0,69,0.00,,CLR,0.00,VWS V14.01,2013-08-30 12:17:00,
2013-08-30 06:22:00,56.0,46.7,29.89,ENE,69,0.0,0.0,71,0.00,,CLR,0.00,VWS V14.01,2013-08-30 12:22:00,
2013-08-30 06:27:00,55.9,46.3,29.89,ENE,69,0.0,0.0,70,0.00,,CLR,0.00,VWS V14.01,2013-08-30 12:27:00,
2013-08-30 06:32:00,55.7,46.8,29.90,ENE,69,0.0,0.0,72,0.00,,CLR,0.00,VWS V14.01,2013-08-30 12:32:00,
2013-08-30 06:37:00,55.6,46.4,29.90,ENE,69,0.0,0.0,71,0.00,,CLR,0.00,VWS V14.01,2013-08-30 12:37:00,
2013-08-30 06:43:00,55.4,46.5,29.90,ENE,69,0.0,0.0,72,0.00,,CLR,0.00,VWS V14.01,2013-08-30 12:43:00,
2013-08-30 06:48:00,55.3,46.8,29.90,ENE,69,0.0,0.0,73,0.00,,CLR,0.00,VWS V14.01,2013-08-30 12:48:00,
2013-08-30 06:53:00,55.3,46.4,29.90,ENE,69,0.0,0.0,72,0.00,,CLR,0.00,VWS V14.01,2013-08-30 12:53:00,
2013-08-30 06:58:00,55.3,46.8,29.90,ENE,69,0.0,0.0,73,0.00,,CLR,0.00,VWS V14.01,2013-08-30 12:58:00,
2013-08-30 07:03:00,55.1,47.0,29.90,ENE,69,0.0,0.0,74,0.00,,CLR,0.00,VWS V14.01,2013-08-30 13:03:00,
2013-08-30 07:08:00,55.1,46.6,29.90,ENE,69,0.0,0.0,73,0.00,,CLR,0.00,VWS V14.01,2013-08-30 13:08:00,
2013-08-30 07:13:00,55.1,47.0,29.90,ENE,69,0.0,0.0,74,0.00,,CLR,0.00,VWS V14.01,2013-08-30 13:13:00,
2013-08-30 07:18:00,55.0,46.9,29.91,ENE,69,0.0,0.0,74,0.00,,CLR,0.00,VWS V14.01,2013-08-30 13:18:00,
2013-08-30 07:23:00,55.1,47.3,29.91,ENE,69,0.0,0.0,75,0.00,,CLR,0.00,VWS V14.01,2013-08-30 13:23:00,
2013-08-30 07:28:00,55.3,47.5,29.91,ENE,69,0.0,0.0,75,0.00,,CLR,0.00,VWS V14.01,2013-08-30 13:28:00,
2013-08-30 07:33:00,55.4,47.3,29.91,ENE,69,0.0,0.0,74,0.00,,CLR,0.00,VWS V14.01,2013-08-30 13:33:00,
2013-08-30 07:38:00,55.6,47.5,29.91,ENE,69,0.0,0.0,74,0.00,,CLR,0.00,VWS V14.01,2013-08-30 13:38:00,
2013-08-30 07:43:00,55.7,47.5,29.91,ENE,69,0.0,0.0,74,0.00,,CLR,0.00,VWS V14.01,2013-08-30 13:43:00,
2013-08-30 07:48:00,55.9,47.7,29.91,ENE,69,0.0,0.0,74,0.00,,CLR,0.00,VWS V14.01,2013-08-30 13:48:00,
2013-08-30 07:53:00,56.0,47.8,29.91,ENE,75,0.0,1.0,74,0.00,,CLR,0.00,VWS V14.01,2013-08-30 13:53:00,
2013-08-30 07:58:00,56.2,48.0,29.91,ENE,75,0.0,0.0,74,0.00,,CLR,0.00,VWS V14.01,2013-08-30 13:58:00,
2013-08-30 08:03:00,56.5,48.3,29.91,ENE,75,0.0,0.0,74,0.00,,CLR,0.00,VWS V14.01,2013-08-30 14:03:00,
2013-08-30 08:08:00,56.6,48.1,29.91,ENE,75,0.0,0.0,73,0.00,,CLR,0.00,VWS V14.01,2013-08-30 14:08:00,
2013-08-30 08:13:00,56.7,48.2,29.91,ENE,75,0.0,0.0,73,0.00,,CLR,0.00,VWS V14.01,2013-08-30 14:13:00,
2013-08-30 08:19:00,57.0,48.4,29.91,ENE,75,0.0,0.0,73,0.00,,CLR,0.00,VWS V14.01,2013-08-30 14:19:00,
2013-08-30 08:24:00,57.3,48.7,29.91,ENE,75,0.0,0.0,73,0.00,,CLR,0.00,VWS V14.01,2013-08-30 14:24:00,
2013-08-30 08:29:00,57.5,48.9,29.91,ENE,75,0.0,0.0,73,0.00,,CLR,0.00,VWS V14.01,2013-08-30 14:29:00,
2013-08-30 08:34:00,57.6,49.4,29.90,ENE,75,0.0,0.0,74,0.00,,CLR,0.00,VWS V14.01,2013-08-30 14:34:00,
2013-08-30 08:39:00,58.0,50.1,29.90,ENE,75,0.0,0.0,75,0.00,,CLR,0.00,VWS V14.01,2013-08-30 14:39:00,
2013-08-30 08:44:00,58.4,49.4,29.90,ENE,75,0.0,0.0,72,0.00,,CLR,0.00,VWS V14.01,2013-08-30 14:44:00,
2013-08-30 08:49:00,58.7,49.7,29.90,ENE,75,0.0,0.0,72,0.00,,CLR,0.00,VWS V14.01,2013-08-30 14:49:00,
2013-08-30 08:54:00,59.0,50.0,29.90,ENE,75,0.0,0.0,72,0.00,,CLR,0.00,VWS V14.01,2013-08-30 14:54:00,
2013-08-30 08:59:00,59.2,49.8,29.90,ENE,75,0.0,0.0,71,0.00,,CLR,0.00,VWS V14.01,2013-08-30 14:59:00,
2013-08-30 09:04:00,59.3,48.8,29.89,ENE,75,0.0,0.0,68,0.00,,CLR,0.00,VWS V14.01,2013-08-30 15:04:00,
2013-08-30 09:09:00,59.8,49.2,29.89,East,86,0.0,1.0,68,0.00,,CLR,0.00,VWS V14.01,2013-08-30 15:09:00,
2013-08-30 09:14:00,60.1,49.9,29.89,NNE,32,0.0,1.0,69,0.00,,CLR,0.00,VWS V14.01,2013-08-30 15:14:00,
2013-08-30 09:19:00,60.4,49.8,29.92,NNE,32,0.0,2.0,68,0.00,,CLR,0.00,VWS V14.01,2013-08-30 15:19:00,
2013-08-30 09:24:00,60.5,49.5,29.92,NNE,32,0.0,0.0,67,0.00,,CLR,0.00,VWS V14.01,2013-08-30 15:24:00,
2013-08-30 09:29:00,60.7,49.7,29.92,NNE,32,0.0,0.0,67,0.00,,CLR,0.00,VWS V14.01,2013-08-30 15:29:00,
2013-08-30 09:34:00,60.7,48.9,29.92,NNE,32,0.0,1.0,65,0.00,,CLR,0.00,VWS V14.01,2013-08-30 15:34:00,
2013-08-30 09:40:00,60.9,48.7,29.92,NNE,32,0.0,0.0,64,0.00,,CLR,0.00,VWS V14.01,2013-08-30 15:40:00,
2013-08-30 09:45:00,61.2,48.9,29.92,North,9,0.0,0.0,64,0.00,,CLR,0.00,VWS V14.01,2013-08-30 15:45:00,
2013-08-30 09:50:00,61.3,48.2,29.92,North,360,0.0,1.0,62,0.00,,CLR,0.00,VWS V14.01,2013-08-30 15:50:00,
2013-08-30 09:55:00,61.5,48.4,29.92,North,9,0.0,2.0,62,0.00,,CLR,0.00,VWS V14.01,2013-08-30 15:55:00,
2013-08-30 10:00:00,61.8,48.2,29.92,North,10,0.0,0.0,61,0.00,,CLR,0.00,VWS V14.01,2013-08-30 16:00:00,
2013-08-30 10:05:00,62.1,48.5,29.92,North,360,0.0,0.0,61,0.00,,CLR,0.00,VWS V14.01,2013-08-30 16:05:00,
2013-08-30 10:10:00,62.4,48.8,29.92,NNW,346,1.0,2.0,61,0.00,,CLR,0.00,VWS V14.01,2013-08-30 16:10:00,
2013-08-30 10:15:00,62.9,48.4,29.92,NNW,346,0.0,0.0,59,0.00,,CLR,0.00,VWS V14.01,2013-08-30 16:15:00,
2013-08-30 10:20:00,63.4,49.3,29.93,West,271,0.0,1.0,60,0.00,,CLR,0.00,VWS V14.01,2013-08-30 16:20:00,
2013-08-30 10:25:00,63.9,48.8,29.93,North,9,0.0,0.0,58,0.00,,CLR,0.00,VWS V14.01,2013-08-30 16:25:00,
2013-08-30 10:30:00,64.2,48.2,29.93,North,9,1.0,2.0,56,0.00,,CLR,0.00,VWS V14.01,2013-08-30 16:30:00,
2013-08-30 12:00:00,77.7,47.9,29.83,WSW,248,1.0,6.0,35,0.00,,CLR,0.00,VWS V14.01,2013-08-30 18:00:00,
2013-08-30 13:12:00,78.6,50.2,29.83,SSE,160,0.0,0.0,37,0.00,,CLR,0.00,VWS V14.01,2013-08-30 19:12:00,
2013-08-30 13:17:00,79.0,49.0,29.83,NNE,20,1.0,1.0,35,0.00,,CLR,0.00,VWS V14.01,2013-08-30 19:17:00,
2013-08-30 13:22:00,79.6,47.2,29.83,ENE,69,0.0,2.0,32,0.00,,CLR,0.00,VWS V14.01,2013-08-30 19:22:00,
2013-08-30 13:27:00,79.9,47.4,29.83,East,98,1.0,5.0,32,0.00,,CLR,0.00,VWS V14.01,2013-08-30 19:27:00,
2013-08-30 13:32:00,80.3,46.1,29.82,North,350,0.0,3.0,30,0.00,,CLR,0.00,VWS V14.01,2013-08-30 19:32:00,
2013-08-30 13:37:00,80.5,49.6,29.82,SW,221,0.0,4.0,34,0.00,,CLR,0.00,VWS V14.01,2013-08-30 19:37:00,
2013-08-30 13:42:00,80.9,47.5,29.82,NW,309,2.0,5.0,31,0.00,,CLR,0.00,VWS V14.01,2013-08-30 19:42:00,
2013-08-30 13:47:00,80.7,47.3,29.81,West,275,2.0,6.0,31,0.00,,CLR,0.00,VWS V14.01,2013-08-30 19:47:00,
2013-08-30 13:52:00,80.1,47.6,29.81,West,259,0.0,5.0,32,0.00,,CLR,0.00,VWS V14.01,2013-08-30 19:52:00,
2013-08-30 13:57:00,80.3,47.8,29.81,ENE,63,0.0,1.0,32,0.00,,CLR,0.00,VWS V14.01,2013-08-30 19:57:00,
2013-08-30 14:02:00,81.2,46.8,29.81,NNW,331,1.0,4.0,30,0.00,,CLR,0.00,VWS V14.01,2013-08-30 20:02:00,
2013-08-30 14:08:00,81.8,44.6,29.81,West,268,2.0,3.0,27,0.00,,CLR,0.00,VWS V14.01,2013-08-30 20:08:00,
2013-08-30 14:13:00,82.2,45.9,29.81,WSW,258,0.0,1.0,28,0.00,,CLR,0.00,VWS V14.01,2013-08-30 20:13:00,
2013-08-30 14:18:00,82.6,46.2,29.80,NW,313,0.0,1.0,28,0.00,,CLR,0.00,VWS V14.01,2013-08-30 20:18:00,
2013-08-30 14:23:00,83.0,45.6,29.80,NW,318,0.0,0.0,27,0.00,,CLR,0.00,VWS V14.01,2013-08-30 20:23:00,
2013-08-30 14:28:00,82.8,49.1,29.80,East,100,0.0,1.0,31,0.00,,CLR,0.00,VWS V14.01,2013-08-30 20:28:00,
2013-08-30 14:33:00,83.2,47.7,29.80,South,180,0.0,1.0,29,0.00,,CLR,0.00,VWS V14.01,2013-08-30 20:33:00,
2013-08-30 14:38:00,82.8,45.4,29.80,NNW,334,2.0,3.0,27,0.00,,CLR,0.00,VWS V14.01,2013-08-30 20:38:00,
2013-08-30 14:43:00,82.8,47.3,29.80,North,351,0.0,1.0,29,0.00,,CLR,0.00,VWS V14.01,2013-08-30 20:43:00,
2013-08-30 14:48:00,83.2,44.8,29.79,WSW,240,1.0,3.0,26,0.00,,CLR,0.00,VWS V14.01,2013-08-30 20:48:00,
2013-08-30 14:53:00,83.2,46.7,29.79,WSW,238,0.0,0.0,28,0.00,,CLR,0.00,VWS V14.01,2013-08-30 20:53:00,
2013-08-30 14:58:00,82.6,45.3,29.79,West,268,0.0,3.0,27,0.00,,CLR,0.00,VWS V14.01,2013-08-30 20:58:00,
2013-08-30 15:03:00,82.2,47.7,29.78,WSW,241,2.0,8.0,30,0.00,,CLR,0.00,VWS V14.01,2013-08-30 21:03:00,
2013-08-30 15:08:00,82.6,46.2,29.78,WSW,250,0.0,6.0,28,0.00,,CLR,0.00,VWS V14.01,2013-08-30 21:08:00,
2013-08-30 15:13:00,83.6,45.1,29.78,SSW,209,0.0,4.0,26,0.00,,CLR,0.00,VWS V14.01,2013-08-30 21:13:00,
2013-08-30 15:18:00,84.7,42.8,29.78,West,259,2.0,3.0,23,0.00,,CLR,0.00,VWS V14.01,2013-08-30 21:18:00,
2013-08-30 15:23:00,85.3,42.2,29.78,NE,34,0.0,5.0,22,0.00,,CLR,0.00,VWS V14.01,2013-08-30 21:23:00,
2013-08-30 15:28:00,85.9,40.2,29.78,NNW,328,0.0,4.0,20,0.00,,CLR,0.00,VWS V14.01,2013-08-30 21:28:00,
2013-08-30 15:33:00,85.9,40.2,29.76,WSW,257,0.0,6.0,20,0.00,,CLR,0.00,VWS V14.01,2013-08-30 21:33:00,
2013-08-30 15:38:00,86.1,42.8,29.76,NNE,23,0.0,5.0,22,0.00,,CLR,0.00,VWS V14.01,2013-08-30 21:38:00,
2013-08-30 15:43:00,86.5,42.0,29.76,WSW,248,1.0,2.0,21,0.00,,CLR,0.00,VWS V14.01,2013-08-30 21:43:00,
2013-08-30 15:48:00,85.5,41.2,29.74,WSW,246,1.0,5.0,21,0.00,,CLR,0.00,VWS V14.01,2013-08-30 21:48:00,
2013-08-30 15:54:00,85.5,44.6,29.74,NNE,30,0.0,3.0,24,0.00,,CLR,0.00,VWS V14.01,2013-08-30 21:54:00,
2013-08-30 15:59:00,86.5,40.7,29.74,NE,49,1.0,4.0,20,0.00,,CLR,0.00,VWS V14.01,2013-08-30 21:59:00,
2013-08-30 16:04:00,87.4,42.7,29.74,WSW,245,0.0,7.0,21,0.00,,CLR,0.00,VWS V14.01,2013-08-30 22:04:00,
2013-08-30 16:09:00,87.8,40.5,29.74,WSW,254,0.0,7.0,19,0.00,,CLR,0.00,VWS V14.01,2013-08-30 22:09:00,
2013-08-30 16:14:00,88.0,43.2,29.74,WSW,249,0.0,6.0,21,0.00,,CLR,0.00,VWS V14.01,2013-08-30 22:14:00,
2013-08-30 16:19:00,88.8,42.6,29.74,SW,218,3.0,5.0,20,0.00,,CLR,0.00,VWS V14.01,2013-08-30 22:19:00,
2013-08-30 16:24:00,88.0,40.6,29.74,NNW,335,0.0,7.0,19,0.00,,CLR,0.00,VWS V14.01,2013-08-30 22:24:00,
2013-08-30 16:29:00,87.4,40.1,29.74,NNE,29,2.0,9.0,19,0.00,,CLR,0.00,VWS V14.01,2013-08-30 22:29:00,
2013-08-30 16:34:00,88.2,42.1,29.75,NE,40,4.0,5.0,20,0.00,,CLR,0.00,VWS V14.01,2013-08-30 22:34:00,
2013-08-30 16:39:00,87.8,43.0,29.75,WSW,244,1.0,10.0,21,0.00,,CLR,0.00,VWS V14.01,2013-08-30 22:39:00,
2013-08-30 16:44:00,86.3,39.2,29.75,WSW,248,4.0,10.0,19,0.00,,CLR,0.00,VWS V14.01,2013-08-30 22:44:00,
2013-08-30 16:49:00,85.9,40.2,29.74,NNE,32,0.0,4.0,20,0.00,,CLR,0.00,VWS V14.01,2013-08-30 22:49:00,
2013-08-30 16:54:00,86.3,41.8,29.74,North,360,2.0,5.0,21,0.00,,CLR,0.00,VWS V14.01,2013-08-30 22:54:00,
2013-08-30 16:59:00,87.6,41.6,29.74,NE,50,0.0,3.0,20,0.00,,CLR,0.00,VWS V14.01,2013-08-30 22:59:00,
2013-08-30 17:04:00,88.4,40.9,29.74,East,82,0.0,3.0,19,0.00,,CLR,0.00,VWS V14.01,2013-08-30 23:04:00,
2013-08-30 17:09:00,88.0,40.6,29.74,NE,39,4.0,5.0,19,0.00,,CLR,0.00,VWS V14.01,2013-08-30 23:09:00,
2013-08-30 17:14:00,87.2,40.0,29.74,North,5,1.0,6.0,19,0.00,,CLR,0.00,VWS V14.01,2013-08-30 23:14:00,
2013-08-30 17:19:00,86.5,39.4,29.76,NE,49,1.0,7.0,19,0.00,,CLR,0.00,VWS V14.01,2013-08-30 23:19:00,
2013-08-30 17:25:00,85.3,37.0,29.76,NE,50,0.0,6.0,18,0.00,,CLR,0.00,VWS V14.01,2013-08-30 23:25:00,
2013-08-30 17:30:00,84.1,40.0,29.76,SE,132,0.0,5.0,21,0.00,,CLR,0.00,VWS V14.01,2013-08-30 23:30:00,
2013-08-30 17:35:00,83.4,38.2,29.76,ENE,72,1.0,2.0,20,0.00,,CLR,0.00,VWS V14.01,2013-08-30 23:35:00,
2013-08-30 17:40:00,83.2,36.7,29.76,NE,51,1.0,5.0,19,0.00,,CLR,0.00,VWS V14.01,2013-08-30 23:40:00,
2013-08-30 17:45:00,83.0,37.8,29.77,NE,40,0.0,6.0,20,0.00,,CLR,0.00,VWS V14.01,2013-08-30 23:45:00,
2013-08-30 17:50:00,82.4,36.0,29.77,NNE,30,2.0,5.0,19,0.00,,CLR,0.00,VWS V14.01,2013-08-30 23:50:00,
2013-08-30 17:55:00,82.0,37.0,29.77,ESE,115,1.0,5.0,20,0.00,,CLR,0.00,VWS V14.01,2013-08-30 23:55:00,
2013-08-30 18:00:00,81.6,37.9,29.77,SW,227,0.0,10.0,21,0.00,,CLR,0.00,VWS V14.01,2013-08-31 00:00:00,
2013-08-30 18:05:00,81.2,36.4,29.77,WNW,301,1.0,2.0,20,0.00,,CLR,0.00,VWS V14.01,2013-08-31 00:05:00,
2013-08-30 18:10:00,80.9,36.1,29.77,SW,227,3.0,7.0,20,0.00,,CLR,0.00,VWS V14.01,2013-08-31 00:10:00,
2013-08-30 18:15:00,80.7,38.4,29.78,ENE,58,0.0,9.0,22,0.00,,CLR,0.00,VWS V14.01,2013-08-31 00:15:00,
2013-08-30 18:20:00,80.5,37.0,29.78,SW,234,0.0,2.0,21,0.00,,CLR,0.00,VWS V14.01,2013-08-31 00:20:00,
2013-08-30 18:25:00,80.1,37.9,29.78,South,191,0.0,4.0,22,0.00,,CLR,0.00,VWS V14.01,2013-08-31 00:25:00,
2013-08-30 18:30:00,79.8,38.8,29.80,WNW,286,1.0,1.0,23,0.00,,CLR,0.00,VWS V14.01,2013-08-31 00:30:00,
2013-08-30 18:35:00,79.6,37.5,29.80,North,5,0.0,3.0,22,0.00,,CLR,0.00,VWS V14.01,2013-08-31 00:35:00,
2013-08-30 18:40:00,79.2,37.1,29.80,North,360,0.0,5.0,22,0.00,,CLR,0.00,VWS V14.01,2013-08-31 00:40:00,
2013-08-30 18:45:00,79.0,37.0,29.79,SE,133,0.0,4.0,22,0.00,,CLR,0.00,VWS V14.01,2013-08-31 00:45:00,
2013-08-30 18:51:00,78.6,37.7,29.79,South,187,0.0,0.0,23,0.00,,CLR,0.00,VWS V14.01,2013-08-31 00:51:00,
2013-08-30 18:56:00,78.3,37.5,29.79,SSE,149,0.0,0.0,23,0.00,,CLR,0.00,VWS V14.01,2013-08-31 00:56:00,
2013-08-30 19:01:00,77.7,41.1,29.81,North,350,0.0,6.0,27,0.00,,CLR,0.00,VWS V14.01,2013-08-31 01:01:00,
2013-08-30 19:06:00,77.4,36.7,29.81,SSW,209,0.0,0.0,23,0.00,,CLR,0.00,VWS V14.01,2013-08-31 01:06:00,
2013-08-30 19:11:00,77.0,39.5,29.81,SSW,209,0.0,1.0,26,0.00,,CLR,0.00,VWS V14.01,2013-08-31 01:11:00,
2013-08-30 19:16:00,76.7,37.2,29.82,WSW,239,1.0,1.0,24,0.00,,CLR,0.00,VWS V14.01,2013-08-31 01:16:00,
2013-08-30 19:21:00,76.7,37.2,29.82,WSW,244,0.0,0.0,24,0.00,,CLR,0.00,VWS V14.01,2013-08-31 01:21:00,
2013-08-30 19:26:00,76.5,39.1,29.82,WSW,254,0.0,0.0,26,0.00,,CLR,0.00,VWS V14.01,2013-08-31 01:26:00,
2013-08-30 19:31:00,76.1,36.7,29.83,WSW,244,0.0,2.0,24,0.00,,CLR,0.00,VWS V14.01,2013-08-31 01:31:00,
2013-08-30 19:36:00,76.0,37.7,29.83,WSW,242,0.0,0.0,25,0.00,,CLR,0.00,VWS V14.01,2013-08-31 01:36:00,
2013-08-30 19:42:00,75.8,39.5,29.83,WSW,242,0.0,0.0,27,0.00,,CLR,0.00,VWS V14.01,2013-08-31 01:42:00,
2013-08-30 19:47:00,75.1,39.8,29.84,WSW,238,0.0,1.0,28,0.00,,CLR,0.00,VWS V14.01,2013-08-31 01:47:00,
2013-08-30 19:52:00,74.7,39.5,29.84,WSW,238,0.0,0.0,28,0.00,,CLR,0.00,VWS V14.01,2013-08-31 01:52:00,
2013-08-30 19:57:00,74.2,40.8,29.84,WSW,238,0.0,0.0,30,0.00,,CLR,0.00,VWS V14.01,2013-08-31 01:57:00,
2013-08-30 20:02:00,73.5,41.0,29.85,WSW,238,0.0,0.0,31,0.00,,CLR,0.00,VWS V14.01,2013-08-31 02:02:00,
2013-08-30 20:07:00,72.7,41.2,29.85,WSW,238,0.0,0.0,32,0.00,,CLR,0.00,VWS V14.01,2013-08-31 02:07:00,
2013-08-30 20:12:00,71.8,43.4,29.85,WSW,238,0.0,0.0,36,0.00,,CLR,0.00,VWS V14.01,2013-08-31 02:12:00,
2013-08-30 20:17:00,70.9,41.9,29.86,WSW,238,0.0,0.0,35,0.00,,CLR,0.00,VWS V14.01,2013-08-31 02:17:00,
2013-08-30 20:22:00,70.3,42.8,29.86,WSW,238,0.0,0.0,37,0.00,,CLR,0.00,VWS V14.01,2013-08-31 02:22:00,
2013-08-30 20:27:00,69.8,43.1,29.86,WSW,238,0.0,0.0,38,0.00,,CLR,0.00,VWS V14.01,2013-08-31 02:27:00,
2013-08-30 20:32:00,69.1,43.1,29.89,WSW,238,0.0,0.0,39,0.00,,CLR,0.00,VWS V14.01,2013-08-31 02:32:00,
2013-08-30 20:37:00,68.4,42.5,29.89,WSW,238,0.0,0.0,39,0.00,,CLR,0.00,VWS V14.01,2013-08-31 02:37:00,
2013-08-30 20:42:00,67.8,42.6,29.89,WSW,238,0.0,0.0,40,0.00,,CLR,0.00,VWS V14.01,2013-08-31 02:42:00,
2013-08-30 20:47:00,67.1,42.6,29.91,WSW,238,0.0,0.0,41,0.00,,CLR,0.00,VWS V14.01,2013-08-31 02:47:00,
2013-08-30 20:52:00,66.6,42.8,29.91,WSW,238,0.0,0.0,42,0.00,,CLR,0.00,VWS V14.01,2013-08-31 02:52:00,
2013-08-30 20:57:00,66.3,42.5,29.91,WSW,238,0.0,0.0,42,0.00,,CLR,0.00,VWS V14.01,2013-08-31 02:57:00,
2013-08-30 21:02:00,65.8,42.7,29.91,WSW,238,0.0,0.0,43,0.00,,CLR,0.00,VWS V14.01,2013-08-31 03:02:00,
2013-08-30 21:08:00,65.3,42.8,29.91,WSW,238,0.0,1.0,44,0.00,,CLR,0.00,VWS V14.01,2013-08-31 03:08:00,
2013-08-30 21:13:00,65.0,42.6,29.91,WSW,238,0.0,0.0,44,0.00,,CLR,0.00,VWS V14.01,2013-08-31 03:13:00,
2013-08-30 21:18:00,64.8,43.0,29.90,WSW,238,0.0,0.0,45,0.00,,CLR,0.00,VWS V14.01,2013-08-31 03:18:00,
2013-08-30 21:23:00,64.3,42.5,29.90,WSW,238,0.0,0.0,45,0.00,,CLR,0.00,VWS V14.01,2013-08-31 03:23:00,
2013-08-30 21:28:00,64.0,42.8,29.90,WSW,238,0.0,0.0,46,0.00,,CLR,0.00,VWS V14.01,2013-08-31 03:28:00,
2013-08-30 21:33:00,63.7,42.5,29.92,WSW,238,0.0,0.0,46,0.00,,CLR,0.00,VWS V14.01,2013-08-31 03:33:00,
2013-08-30 21:38:00,63.5,42.4,29.92,WSW,238,0.0,0.0,46,0.00,,CLR,0.00,VWS V14.01,2013-08-31 03:38:00,
2013-08-30 21:43:00,63.1,42.6,29.92,WSW,238,0.0,0.0,47,0.00,,CLR,0.00,VWS V14.01,2013-08-31 03:43:00,
2013-08-30 21:48:00,62.9,42.4,29.92,SW,215,0.0,0.0,47,0.00,,CLR,0.00,VWS V14.01,2013-08-31 03:48:00,
2013-08-30 21:53:00,62.7,42.2,29.92,SW,215,0.0,0.0,47,0.00,,CLR,0.00,VWS V14.01,2013-08-31 03:53:00,
2013-08-30 21:58:00,62.4,41.9,29.92,SW,215,0.0,0.0,47,0.00,,CLR,0.00,VWS V14.01,2013-08-31 03:58:00,
2013-08-30 22:01:00,62.3,42.4,29.93,SW,215,0.0,0.0,48,0.00,,CLR,0.00,VWS V14.01,2013-08-31 04:01:00,
2013-08-30 22:02:00,62.1,42.2,29.93,SW,215,0.0,0.0,48,0.00,,CLR,0.00,VWS V14.01,2013-08-31 04:02:00,
2013-08-30 22:06:00,62.0,42.1,29.93,SW,215,0.0,0.0,48,0.00,,CLR,0.00,VWS V14.01,2013-08-31 04:06:00,
2013-08-30 22:08:00,61.8,42.5,29.93,SW,215,0.0,0.0,49,0.00,,CLR,0.00,VWS V14.01,2013-08-31 04:08:00,
2013-08-30 22:10:00,61.6,42.3,29.93,SW,215,0.0,0.0,49,0.00,,CLR,0.00,VWS V14.01,2013-08-31 04:10:00,
2013-08-30 22:15:00,61.5,42.2,29.92,SW,215,0.0,0.0,49,0.00,,CLR,0.00,VWS V14.01,2013-08-31 04:15:00,
2013-08-30 22:20:00,61.3,41.5,29.92,SW,215,0.0,0.0,48,0.00,,CLR,0.00,VWS V14.01,2013-08-31 04:20:00,
2013-08-30 22:25:00,61.5,42.2,29.92,SW,215,0.0,0.0,49,0.00,,CLR,0.00,VWS V14.01,2013-08-31 04:25:00,
2013-08-30 22:31:00,61.5,41.1,29.92,SW,215,0.0,0.0,47,0.00,,CLR,0.00,VWS V14.01,2013-08-31 04:31:00,
2013-08-30 22:36:00,62.0,42.1,29.92,SW,215,0.0,0.0,48,0.00,,CLR,0.00,VWS V14.01,2013-08-31 04:36:00,
2013-08-30 22:41:00,62.1,41.7,29.92,SW,215,0.0,0.0,47,0.00,,CLR,0.00,VWS V14.01,2013-08-31 04:41:00,
2013-08-30 22:46:00,62.3,42.4,29.93,SW,215,0.0,0.0,48,0.00,,CLR,0.00,VWS V14.01,2013-08-31 04:46:00,
2013-08-30 22:51:00,62.3,41.3,29.93,SW,215,0.0,0.0,46,0.00,,CLR,0.00,VWS V14.01,2013-08-31 04:51:00,
2013-08-30 22:56:00,62.3,42.4,29.93,SW,215,0.0,0.0,48,0.00,,CLR,0.00,VWS V14.01,2013-08-31 04:56:00,
2013-08-30 23:01:00,62.1,41.7,29.93,SW,215,0.0,0.0,47,0.00,,CLR,0.00,VWS V14.01,2013-08-31 05:01:00,
2013-08-30 23:06:00,61.8,41.4,29.93,SW,215,0.0,0.0,47,0.00,,CLR,0.00,VWS V14.01,2013-08-31 05:06:00,
2013-08-30 23:11:00,62.1,40.0,29.93,East,87,0.0,0.0,44,0.00,,CLR,0.00,VWS V14.01,2013-08-31 05:11:00,
2013-08-30 23:16:00,62.4,41.4,29.88,East,87,0.0,0.0,46,0.00,,CLR,0.00,VWS V14.01,2013-08-31 05:16:00,
2013-08-30 23:21:00,62.7,40.5,29.88,East,87,0.0,0.0,44,0.00,,CLR,0.00,VWS V14.01,2013-08-31 05:21:00,
2013-08-30 23:26:00,62.9,41.8,29.88,East,87,0.0,0.0,46,0.00,,CLR,0.00,VWS V14.01,2013-08-31 05:26:00,
2013-08-30 23:31:00,62.9,40.1,29.89,East,87,0.0,0.0,43,0.00,,CLR,0.00,VWS V14.01,2013-08-31 05:31:00,
2013-08-30 23:36:00,62.9,39.5,29.89,East,88,0.0,1.0,42,0.00,,CLR,0.00,VWS V14.01,2013-08-31 05:36:00,
2013-08-30 23:41:00,63.2,41.5,29.89,East,89,0.0,1.0,45,0.00,,CLR,0.00,VWS V14.01,2013-08-31 05:41:00,
2013-08-30 23:46:00,63.4,39.3,29.89,NNE,24,0.0,0.0,41,0.00,,CLR,0.00,VWS V14.01,2013-08-31 05:46:00,
2013-08-30 23:52:00,63.5,38.8,29.89,North,355,0.0,4.0,40,0.00,,CLR,0.00,VWS V14.01,2013-08-31 05:52:00,
2013-08-30 23:57:00,63.9,36.5,29.89,NNE,15,1.0,3.0,36,0.00,,CLR,0.00,VWS V14.01,2013-08-31 05:57:00,